Weather History for Greenwood, SC

Change the Weather History Date:

Thursday, January 30, 2014

  Actual Average (KAND) Record (KAND)
Temperature  
Mean Temperature 26 °F -  
Max Temperature 41 °F 55 °F 79 °F (1975)
Min Temperature 10 °F 34 °F 0 °F (1966)
Degree Days  
Heating Degree Days 40    
Moisture  
Dew Point 10 °F    
Average Humidity 58    
Maximum Humidity 84    
Minimum Humidity 25    
Precipitation  
Precipitation 0.00 in - - ()
Sea Level Pressure  
Sea Level Pressure 30.33 in    
Wind  
Wind Speed 1 mph (NE)    
Max Wind Speed 7 mph    
Max Gust Speed -    
Visibility 10 miles    
Events      
Averages and records for this station are not official NWS values.
T = Trace of Precipitation, MM = Missing Value Source: NWS Daily Summary

Daily Weather History Graph

Daily Weather History Graph

Search for Another Location

Airport:

Trip Planner

Search our weather history database for the weather conditions in past years. The results will help you decide how hot, cold, wet, or windy it might be!

Date:

Astronomy

Jan. 30, 2014 Rise Set
Actual Time 7:27 AM EST 5:56 PM EST
Civil Twilight 7:01 AM EST 6:23 PM EST
Nautical Twilight 6:30 AM EST 6:53 PM EST
Astronomical Twilight 6:01 AM EST 7:22 PM EST
Moon 6:54 AM EST (1/30) 6:04 PM EST (1/30)
Length of Visible Light 11h 22m
Length of Day
10h 29m
Waning Crescent, 0% of the Moon is Illuminated
Jan 30
Waning Crescent
Jan 30
New
Feb 6
First Quarter
Feb 14
Full
Feb 22
Last Quarter

Hourly Weather History & Observations

Time (EST) Temp. Windchill Dew Point Humidity Pressure Visibility Wind Dir Wind Speed Gust Speed Precip Events Conditions
12:56 AM 16.0 °F - 12.0 °F 84% 30.38 in 10.0 mi Calm Calm - N/A   Clear
1:56 AM 16.0 °F - 10.9 °F 81% 30.39 in 10.0 mi Calm Calm - N/A   Clear
2:56 AM 14.0 °F - 9.0 °F 80% 30.38 in 10.0 mi Calm Calm - N/A   Clear
3:56 AM 12.9 °F - 8.1 °F 81% 30.37 in 10.0 mi Calm Calm - N/A   Clear
4:56 AM 12.0 °F - 8.1 °F 84% 30.38 in 10.0 mi Calm Calm - N/A   Clear
5:56 AM 12.0 °F - 7.0 °F 80% 30.38 in 10.0 mi Calm Calm - N/A   Clear
6:56 AM 10.9 °F 4.7 °F 7.0 °F 84% 30.39 in 10.0 mi NNW 3.5 mph - N/A   Clear
7:56 AM 12.0 °F - 7.0 °F 80% 30.40 in 10.0 mi Calm Calm - N/A   Clear
8:56 AM 21.0 °F 16.2 °F 15.1 °F 78% 30.40 in 10.0 mi NNE 3.5 mph - N/A   Clear
9:56 AM 27.0 °F 21.6 °F 14.0 °F 58% 30.41 in 10.0 mi ENE 4.6 mph - N/A   Clear
10:56 AM 32.0 °F 25.6 °F 12.0 °F 44% 30.41 in 10.0 mi NE 6.9 mph - N/A   Clear
11:56 AM 34.0 °F 28.0 °F 10.0 °F 37% 30.40 in 10.0 mi ESE 6.9 mph - N/A   Clear
12:56 PM 37.0 °F 33.3 °F 9.0 °F 31% 30.35 in 10.0 mi Variable 4.6 mph - 0.00 in   Clear
1:56 PM 39.0 °F - 8.1 °F 28% 30.31 in 10.0 mi Calm Calm - N/A   Clear
2:56 PM 39.9 °F - 8.1 °F 27% 30.29 in 10.0 mi Calm Calm - N/A   Clear
3:56 PM 41.0 °F - 7.0 °F 25% 30.26 in 10.0 mi Calm Calm - N/A   Clear
4:56 PM 41.0 °F 38.0 °F 7.0 °F 25% 30.24 in 10.0 mi ENE 4.6 mph - N/A   Clear
5:56 PM 37.0 °F - 8.1 °F 30% 30.26 in 10.0 mi Calm Calm - N/A   Clear
6:56 PM 28.9 °F - 10.0 °F 45% 30.27 in 10.0 mi Calm Calm - N/A   Clear
7:56 PM 28.0 °F - 10.0 °F 47% 30.26 in 10.0 mi Calm Calm - N/A   Clear
8:56 PM 25.0 °F - 12.0 °F 58% 30.28 in 10.0 mi Calm Calm - N/A   Clear
9:56 PM 21.9 °F - 12.0 °F 66% 30.28 in 10.0 mi Calm Calm - N/A   Clear
10:56 PM 23.0 °F - 12.0 °F 63% 30.26 in 10.0 mi Calm Calm - N/A   Clear
11:56 PM 21.9 °F - 12.0 °F 66% 30.26 in 10.0 mi Calm Calm - N/A   Clear